Location: Cosy Dell
(34.2789°N, 117.4537°W)
Time: 21:04:48
(UTC+00:00)

ADEOS II - Pass Details

Date: 14 July 2020
Orbit: 799 x 801 km, 98.5° (Epoch: 13 August)

Event Time Altitude Azimuth Distance (km) Brightness Sun altitude
Rises 09:45:22 0° 18° (NNE) 3,313 6.5 -28.4°
Reaches altitude 10° 09:47:46 10° 23° (NNE) 2,379 5.5 -28.1°
Maximum altitude 09:52:54 53° 100° (E) 973 2.5 -27.6°
Enters shadow 09:53:18 52° 117° (ESE) 987 2.5 -27.5°
